Location: Newark
(10.3333°N, 37.7167°E)
Time: 11:08:42
(UTC+00:00)

LightSail 2 - Pass Details

Date: 30 January 2020
Orbit: 700 x 722 km, 24.0° (Epoch: 19 February)

Event Time Altitude Azimuth Distance (km) Brightness Sun altitude
Rises 16:00:22 0° 298° (WNW) 3,067 9.2 -7.4°
Reaches altitude 10° 16:02:49 10° 303° (WNW) 2,152 8.3 -7.9°
Maximum altitude 16:07:48 56° 21° (NNE) 828 5.3 -9.1°
Enters shadow 16:12:47 10° 99° (E) 2,151 7.1 -10.3°
